Location: Strawberry
(45.6646°N, 111.9596°W)
Time: 15:45:35
(UTC+00:00)

deb Explorer IX - All Passes

Search period start: 03 October 2022 00:00
Search period end: 13 October 2022 00:00
Orbit: 531 x 1064 km, 38.8° (Epoch: 02 October)

Date Brightness Start Highest point End Pass type
(mag) Time Alt. Az. Time Alt. Az. Time Alt. Az.
03 Oct - 13:37:30 10° SSW 13:41:30 25° SSE 13:46:01 10° ESE daylight
03 Oct - 15:22:12 10° WSW 15:27:14 42° S 15:33:02 10° ESE daylight
03 Oct - 17:07:57 10° WSW 17:13:18 38° SSW 17:19:20 10° SE daylight
03 Oct - 18:54:41 10° WSW 18:59:13 21° SSW 19:04:04 10° SSE daylight
04 Oct - 13:07:18 10° SSW 13:11:02 23° SSE 13:15:13 10° ESE daylight
04 Oct - 14:51:52 10° WSW 14:56:41 40° S 15:02:15 10° ESE daylight
04 Oct - 16:37:31 10° WSW 16:42:42 38° S 16:48:35 10° SE daylight
04 Oct - 18:24:07 10° WSW 18:28:37 21° SSW 18:33:28 10° SSE daylight
05 Oct - 12:37:08 10° SSW 12:40:34 20° SSE 12:44:22 10° ESE visible
05 Oct - 14:21:32 10° WSW 14:26:08 39° S 14:31:28 10° ESE daylight
05 Oct - 16:07:06 10° WSW 16:12:06 38° S 16:17:50 10° SE daylight
05 Oct - 17:53:35 10° WSW 17:58:00 22° SSW 18:02:49 10° SSE daylight
06 Oct - 12:06:58 10° SSW 12:10:06 18° SSE 12:13:30 10° ESE visible
06 Oct - 13:51:12 10° WSW 13:55:36 37° S 14:00:41 10° ESE daylight
06 Oct - 15:36:42 10° WSW 15:41:30 38° S 15:47:03 10° ESE daylight
06 Oct - 17:23:04 10° WSW 17:27:24 22° SSW 17:32:09 10° SSE daylight
07 Oct - 11:36:49 10° SSW 11:39:37 17° SSE 11:42:38 10° ESE visible
07 Oct - 13:20:51 10° SW 13:25:04 35° S 13:29:53 10° ESE daylight
07 Oct - 15:06:17 10° WSW 15:10:55 37° S 15:16:16 10° ESE daylight
07 Oct - 16:52:34 10° WSW 16:56:47 22° SSW 17:01:27 10° SSE daylight
08 Oct - 11:06:42 10° S 11:09:08 15° SSE 11:11:44 10° ESE visible
08 Oct - 12:50:30 10° SW 12:54:32 33° SSE 12:59:06 10° ESE visible
08 Oct - 14:35:52 10° WSW 14:40:20 37° S 14:45:28 10° ESE daylight
08 Oct - 16:22:04 10° WSW 16:26:10 22° SSW 16:30:43 10° SSE daylight
09 Oct - 10:36:37 10° S 10:38:39 13° SSE 10:40:47 10° ESE visible
09 Oct - 12:20:08 10° SW 12:23:59 31° SSE 12:28:19 10° ESE visible
09 Oct - 14:05:27 10° WSW 14:09:44 36° S 14:14:41 10° ESE daylight
09 Oct - 15:51:34 10° WSW 15:55:33 23° SSW 15:59:59 10° SSE daylight
10 Oct - 10:06:35 10° S 10:08:09 12° SSE 10:09:46 10° SE visible
10 Oct - 11:49:45 10° SW 11:53:27 29° SSE 11:57:32 10° ESE visible
10 Oct - 13:35:01 10° WSW 13:39:09 35° S 13:43:53 10° ESE daylight
10 Oct - 15:21:04 10° WSW 15:24:56 23° SSW 15:29:14 10° SSE daylight
11 Oct - 09:36:45 10° SSE 09:37:38 11° SSE 09:38:33 10° SE visible
11 Oct - 11:19:21 10° SW 11:22:54 27° SSE 11:26:46 10° ESE visible
11 Oct - 13:04:34 10° WSW 13:08:34 35° S 13:13:06 10° ESE visible
11 Oct - 14:50:34 10° WSW 14:54:19 23° SSW 14:58:29 10° SSE daylight
12 Oct - 10:48:57 10° SW 10:52:22 26° SSE 10:56:01 10° ESE visible
12 Oct - 12:34:06 10° WSW 12:37:59 34° S 12:42:19 10° ESE visible
12 Oct - 14:20:04 10° WSW 14:23:42 23° SSW 14:27:43 10° SSE daylight
